When you browse on this site, cookies collect data to enhance your experience and personalize the content and advertising you see.
Visit our Privacy Policy to learn more. By continuing to use the site, you agree to this use of cookies and data.
  • In United Kingdom
  • List of Countries
  • For 7 days
  • Water Temperature
  • Weather Map
  • Weather Widgets
  • user-avatar
    Login

    Hourly Weather Dhanaura

    Today, 24 August, Saturday

    Time Temperature Precipitation Wind Pressure Humidity
    00:00 +30°C° 0 mm 1 mps 733 mmHg 70%
    01:00 +30°C° 0 mm 1 mps 733 mmHg 71%
    02:00 +29°C° 0 mm 1 mps 733 mmHg 72%
    03:00 +29°C° 0 mm 1 mps 733 mmHg 74%
    04:00 +29°C° 0 mm 1 mps 733 mmHg 76%
    05:00 +29°C° 0 mm 1 mps 733 mmHg 80%
    06:00 +30°C° 0.6 mm 1 mps 733 mmHg 78%
    07:00 +31°C° 0.6 mm 1 mps 733 mmHg 76%
    08:00 +32°C° 0.6 mm 1 mps 733 mmHg 73%
    09:00 +33°C° 0.5 mm 1 mps 734 mmHg 67%
    10:00 +34°C° 0.5 mm 1 mps 734 mmHg 61%
    11:00 +36°C° 0.5 mm 1 mps 734 mmHg 55%
    12:00 +36°C° 0 mm 1 mps 733 mmHg 53%
    13:00 +37°C° 0 mm 1 mps 733 mmHg 51%
    14:00 +37°C° 0 mm 1 mps 732 mmHg 48%
    15:00 +37°C° 0.2 mm 2 mps 732 mmHg 57%
    16:00 +35°C° 0.2 mm 3 mps 731 mmHg 65%
    17:00 +33°C° 0.2 mm 4 mps 731 mmHg 73%
    18:00 +32°C° 0 mm 4 mps 732 mmHg 76%
    19:00 +31°C° 0 mm 3 mps 732 mmHg 79%
    20:00 +30°C° 0 mm 3 mps 732 mmHg 82%
    21:00 +30°C° 0 mm 3 mps 732 mmHg 82%
    22:00 +29°C° 0 mm 3 mps 733 mmHg 83%
    23:00 +29°C° 0 mm 3 mps 733 mmHg 84%

    Tomorrow, 25 August, Sunday

    Time Temperature Precipitation Wind Pressure Humidity
    00:00 +29°C° 0.1 mm 3 mps 733 mmHg 84%
    01:00 +29°C° 0.1 mm 3 mps 732 mmHg 85%
    02:00 +29°C° 0.1 mm 3 mps 732 mmHg 85%
    03:00 +28°C° 0 mm 3 mps 732 mmHg 87%
    04:00 +28°C° 0 mm 2 mps 732 mmHg 88%
    05:00 +28°C° 0 mm 2 mps 732 mmHg 89%
    06:00 +29°C° 1.3 mm 2 mps 733 mmHg 85%
    07:00 +30°C° 1.3 mm 2 mps 733 mmHg 80%
    08:00 +31°C° 1.3 mm 3 mps 734 mmHg 76%
    09:00 +33°C° 0.9 mm 3 mps 734 mmHg 73%
    10:00 +34°C° 0.9 mm 4 mps 734 mmHg 70%
    11:00 +34°C° 0.9 mm 5 mps 734 mmHg 68%
    12:00 +34°C° 1.7 mm 4 mps 734 mmHg 68%
    13:00 +34°C° 1.7 mm 4 mps 733 mmHg 68%
    14:00 +34°C° 1.7 mm 4 mps 733 mmHg 68%
    15:00 +34°C° 0.2 mm 3 mps 733 mmHg 69%
    16:00 +32°C° 0.2 mm 2 mps 733 mmHg 71%
    17:00 +32°C° 0.2 mm 1 mps 732 mmHg 72%
    18:00 +31°C° 0.1 mm 1 mps 733 mmHg 74%
    19:00 +30°C° 0.1 mm 1 mps 733 mmHg 76%
    20:00 +29°C° 0.1 mm 1 mps 733 mmHg 78%
    21:00 +29°C° 0 mm 1 mps 733 mmHg 79%
    22:00 +29°C° 0 mm 1 mps 733 mmHg 80%
    23:00 +29°C° 0 mm 1 mps 733 mmHg 81%

    Day after tomorrow, 26 August, Monday

    Time Temperature Precipitation Wind Pressure Humidity
    00:00 +29°C° 0 mm 1 mps 733 mmHg 80%
    01:00 +29°C° 0 mm 1 mps 733 mmHg 80%
    02:00 +29°C° 0 mm 1 mps 733 mmHg 80%
    03:00 +29°C° 0.2 mm 1 mps 733 mmHg 82%
    04:00 +29°C° 0.2 mm 1 mps 733 mmHg 83%
    05:00 +28°C° 0.2 mm 2 mps 733 mmHg 85%
    06:00 +28°C° 0.2 mm 2 mps 733 mmHg 86%
    07:00 +28°C° 0.2 mm 2 mps 734 mmHg 87%
    08:00 +28°C° 0.2 mm 2 mps 734 mmHg 88%
    09:00 +29°C° 0 mm 2 mps 734 mmHg 83%
    10:00 +30°C° 0 mm 3 mps 734 mmHg 79%
    11:00 +31°C° 0 mm 3 mps 734 mmHg 74%
    12:00 +33°C° 0 mm 3 mps 733 mmHg 69%
    13:00 +35°C° 0 mm 3 mps 733 mmHg 63%
    14:00 +36°C° 0 mm 2 mps 732 mmHg 58%
    15:00 +35°C° 0 mm 2 mps 732 mmHg 61%
    16:00 +35°C° 0 mm 2 mps 731 mmHg 65%
    17:00 +33°C° 0 mm 1 mps 730 mmHg 68%
    18:00 +32°C° 0 mm 1 mps 730 mmHg 69%
    19:00 +31°C° 0 mm 1 mps 731 mmHg 70%
    20:00 +30°C° 0 mm 1 mps 731 mmHg 71%
    21:00 +30°C° 0 mm 1 mps 731 mmHg 72%
    22:00 +30°C° 0 mm 2 mps 732 mmHg 73%
    23:00 +29°C° 0 mm 2 mps 732 mmHg 74%

    27 August, Tuesday

    Time Temperature Precipitation Wind Pressure Humidity
    00:00 +29°C° 0 mm 2 mps 732 mmHg 76%
    01:00 +29°C° 0 mm 2 mps 732 mmHg 78%
    02:00 +29°C° 0 mm 2 mps 732 mmHg 79%
    03:00 +28°C° 0.2 mm 2 mps 732 mmHg 82%
    04:00 +28°C° 0.2 mm 2 mps 732 mmHg 84%
    05:00 +28°C° 0.2 mm 2 mps 732 mmHg 86%
    06:00 +29°C° 0 mm 3 mps 732 mmHg 83%
    07:00 +30°C° 0 mm 3 mps 732 mmHg 80%
    08:00 +31°C° 0 mm 3 mps 733 mmHg 77%
    09:00 +34°C° 0 mm 4 mps 733 mmHg 71%
    10:00 +35°C° 0 mm 4 mps 733 mmHg 65%
    11:00 +37°C° 0 mm 4 mps 733 mmHg 59%
    12:00 +37°C° 0 mm 4 mps 732 mmHg 56%
    13:00 +38°C° 0 mm 3 mps 732 mmHg 54%
    14:00 +38°C° 0 mm 3 mps 731 mmHg 51%
    15:00 +38°C° 0 mm 3 mps 731 mmHg 55%
    16:00 +37°C° 0 mm 2 mps 730 mmHg 59%
    17:00 +36°C° 0 mm 2 mps 730 mmHg 64%
    18:00 +35°C° 0.1 mm 2 mps 730 mmHg 66%
    19:00 +34°C° 0.1 mm 2 mps 731 mmHg 68%
    20:00 +32°C° 0.1 mm 2 mps 731 mmHg 70%
    21:00 +32°C° 0 mm 2 mps 732 mmHg 73%
    22:00 +31°C° 0 mm 2 mps 732 mmHg 75%
    23:00 +31°C° 0 mm 2 mps 732 mmHg 77%

    28 August, Wednesday

    Time Temperature Precipitation Wind Pressure Humidity
    00:00 +30°C° 0 mm 2 mps 732 mmHg 79%
    01:00 +30°C° 0 mm 2 mps 732 mmHg 81%
    02:00 +30°C° 0 mm 2 mps 732 mmHg 82%
    03:00 +29°C° 0 mm 2 mps 732 mmHg 83%
    04:00 +29°C° 0 mm 2 mps 732 mmHg 84%
    05:00 +29°C° 0 mm 2 mps 732 mmHg 85%
    06:00 +30°C° 0 mm 2 mps 732 mmHg 82%
    07:00 +31°C° 0 mm 3 mps 733 mmHg 79%
    08:00 +33°C° 0 mm 3 mps 733 mmHg 75%
    09:00 +35°C° 0 mm 3 mps 733 mmHg 70%
    10:00 +36°C° 0 mm 3 mps 733 mmHg 64%
    11:00 +37°C° 0 mm 3 mps 733 mmHg 59%
    12:00 +38°C° 0 mm 3 mps 733 mmHg 57%
    13:00 +38°C° 0 mm 3 mps 733 mmHg 56%
    14:00 +38°C° 0 mm 2 mps 732 mmHg 54%
    15:00 +38°C° 0 mm 2 mps 732 mmHg 57%
    16:00 +37°C° 0 mm 2 mps 732 mmHg 60%
    17:00 +36°C° 0 mm 1 mps 731 mmHg 63%
    18:00 +35°C° 0 mm 1 mps 731 mmHg 64%
    19:00 +34°C° 0 mm 1 mps 732 mmHg 66%
    20:00 +32°C° 0 mm 1 mps 732 mmHg 68%
    21:00 +32°C° 0 mm 1 mps 732 mmHg 70%
    22:00 +32°C° 0 mm 1 mps 732 mmHg 71%
    23:00 +31°C° 0 mm 1 mps 733 mmHg 73%

    29 August, Thursday

    Time Temperature Precipitation Wind Pressure Humidity
    00:00 +31°C° 0 mm 1 mps 732 mmHg 74%
    01:00 +29°C° 0 mm 0 mps 732 mmHg 75%
    02:00 +29°C° 0 mm 0 mps 732 mmHg 76%
    03:00 +28°C° 0 mm 0 mps 732 mmHg 76%
    04:00 +28°C° 0 mm 0 mps 732 mmHg 77%
    05:00 +28°C° 0 mm 0 mps 732 mmHg 78%
    06:00 +29°C° 0 mm 0 mps 732 mmHg 75%
    07:00 +30°C° 0 mm 0 mps 733 mmHg 72%
    08:00 +31°C° 0 mm 0 mps 733 mmHg 68%
    09:00 +33°C° 0 mm 0 mps 733 mmHg 64%
    10:00 +34°C° 0 mm 0 mps 733 mmHg 59%
    11:00 +37°C° 0 mm 1 mps 733 mmHg 54%
    12:00 +39°C° 0 mm 1 mps 733 mmHg 53%
    13:00 +39°C° 0 mm 1 mps 732 mmHg 51%
    14:00 +39°C° 0 mm 1 mps 732 mmHg 50%
    15:00 +39°C° 0 mm 1 mps 731 mmHg 53%
    16:00 +37°C° 0 mm 1 mps 731 mmHg 55%
    17:00 +37°C° 0 mm 1 mps 731 mmHg 58%
    18:00 +36°C° 0 mm 1 mps 731 mmHg 59%
    19:00 +35°C° 0 mm 1 mps 731 mmHg 61%
    20:00 +31°C° 0 mm 0 mps 731 mmHg 62%
    21:00 +33°C° 0 mm 1 mps 732 mmHg 64%
    22:00 +33°C° 0 mm 1 mps 732 mmHg 65%
    23:00 +32°C° 0 mm 1 mps 732 mmHg 67%
    Show more